• In Uzbekistan
  • List of Countries
  • For 7 days
  • Water Temperature
  • Weather Map
  • Weather Widgets
  • user-avatar
    Login

    Hourly Weather Skadovsk

    Today, 18 November, Monday

    Time Temperature Precipitation Wind Pressure Humidity
    00:00 +3°C° 0 mm 5 mps 768 mmHg 92%
    01:00 +4°C° 0 mm 4 mps 768 mmHg 92%
    02:00 +4°C° 0 mm 4 mps 768 mmHg 93%
    03:00 +4°C° 0 mm 4 mps 768 mmHg 92%
    04:00 +4°C° 0 mm 4 mps 767 mmHg 92%
    05:00 +4°C° 0 mm 4 mps 767 mmHg 91%
    06:00 +5°C° 0 mm 3 mps 767 mmHg 90%
    07:00 +5°C° 0 mm 3 mps 767 mmHg 90%
    08:00 +7°C° 0 mm 3 mps 768 mmHg 88%
    09:00 +8°C° 0 mm 3 mps 768 mmHg 83%
    10:00 +10°C° 0 mm 3 mps 768 mmHg 79%
    11:00 +11°C° 0 mm 3 mps 768 mmHg 74%
    12:00 +13°C° 0 mm 2 mps 768 mmHg 71%
    13:00 +14°C° 0 mm 2 mps 768 mmHg 67%
    14:00 +15°C° 0 mm 2 mps 767 mmHg 64%
    15:00 +13°C° 0 mm 2 mps 768 mmHg 70%
    16:00 +12°C° 0 mm 2 mps 768 mmHg 76%
    17:00 +10°C° 0 mm 2 mps 768 mmHg 82%
    18:00 +9°C° 0 mm 2 mps 768 mmHg 85%
    19:00 +8°C° 0 mm 2 mps 768 mmHg 87%
    20:00 +8°C° 0 mm 3 mps 768 mmHg 89%
    21:00 +8°C° 0 mm 3 mps 768 mmHg 90%
    22:00 +7°C° 0 mm 3 mps 769 mmHg 91%
    23:00 +7°C° 0 mm 3 mps 769 mmHg 92%

    Tomorrow, 19 November, Tuesday

    Time Temperature Precipitation Wind Pressure Humidity
    00:00 +7°C° 0 mm 3 mps 769 mmHg 92%
    01:00 +5°C° 0 mm 3 mps 769 mmHg 92%
    02:00 +5°C° 0 mm 3 mps 769 mmHg 92%
    03:00 +5°C° 0 mm 3 mps 769 mmHg 92%
    04:00 +5°C° 0 mm 3 mps 769 mmHg 91%
    05:00 +5°C° 0 mm 3 mps 769 mmHg 90%
    06:00 +5°C° 0 mm 3 mps 769 mmHg 88%
    07:00 +5°C° 0 mm 3 mps 769 mmHg 86%
    08:00 +5°C° 0 mm 3 mps 770 mmHg 84%
    09:00 +8°C° 0 mm 3 mps 770 mmHg 76%
    10:00 +9°C° 0 mm 3 mps 770 mmHg 68%
    11:00 +11°C° 0 mm 3 mps 770 mmHg 61%
    12:00 +12°C° 0 mm 3 mps 770 mmHg 58%
    13:00 +12°C° 0 mm 3 mps 769 mmHg 56%
    14:00 +14°C° 0 mm 2 mps 769 mmHg 54%
    15:00 +13°C° 0 mm 2 mps 769 mmHg 58%
    16:00 +11°C° 0 mm 3 mps 769 mmHg 62%
    17:00 +10°C° 0 mm 3 mps 769 mmHg 66%
    18:00 +9°C° 0 mm 3 mps 769 mmHg 67%
    19:00 +9°C° 0 mm 3 mps 769 mmHg 68%
    20:00 +8°C° 0 mm 3 mps 769 mmHg 70%
    21:00 +8°C° 0 mm 3 mps 769 mmHg 69%
    22:00 +8°C° 0 mm 3 mps 769 mmHg 69%
    23:00 +7°C° 0 mm 3 mps 769 mmHg 69%

    Day after tomorrow, 20 November, Wednesday

    Time Temperature Precipitation Wind Pressure Humidity
    00:00 +7°C° 0 mm 3 mps 769 mmHg 69%
    01:00 +7°C° 0 mm 3 mps 769 mmHg 69%
    02:00 +5°C° 0 mm 3 mps 769 mmHg 69%
    03:00 +5°C° 0 mm 3 mps 769 mmHg 70%
    04:00 +5°C° 0 mm 4 mps 769 mmHg 72%
    05:00 +5°C° 0 mm 4 mps 769 mmHg 74%
    06:00 +5°C° 0 mm 4 mps 769 mmHg 74%
    07:00 +5°C° 0 mm 4 mps 769 mmHg 75%
    08:00 +5°C° 0 mm 5 mps 769 mmHg 76%
    09:00 +6°C° 0 mm 5 mps 769 mmHg 69%
    10:00 +8°C° 0 mm 5 mps 769 mmHg 62%
    11:00 +10°C° 0 mm 5 mps 769 mmHg 55%
    12:00 +10°C° 0 mm 5 mps 768 mmHg 52%
    13:00 +12°C° 0 mm 5 mps 768 mmHg 49%
    14:00 +12°C° 0 mm 5 mps 768 mmHg 46%
    15:00 +10°C° 0 mm 5 mps 768 mmHg 52%
    16:00 +9°C° 0 mm 6 mps 768 mmHg 58%
    17:00 +8°C° 0 mm 6 mps 768 mmHg 63%
    18:00 +7°C° 0 mm 6 mps 768 mmHg 70%
    19:00 +5°C° 0 mm 7 mps 768 mmHg 76%
    20:00 +5°C° 0 mm 8 mps 769 mmHg 83%
    21:00 +4°C° 0 mm 8 mps 769 mmHg 81%
    22:00 +4°C° 0 mm 8 mps 769 mmHg 79%
    23:00 +4°C° 0 mm 8 mps 769 mmHg 78%

    21 November, Thursday

    Time Temperature Precipitation Wind Pressure Humidity
    00:00 +4°C° 0 mm 8 mps 769 mmHg 74%
    01:00 +2°C° 0 mm 9 mps 769 mmHg 70%
    02:00 +2°C° 0 mm 9 mps 769 mmHg 67%
    03:00 +2°C° 0 mm 9 mps 769 mmHg 68%
    04:00 +2°C° 0 mm 9 mps 769 mmHg 70%
    05:00 +2°C° 0 mm 10 mps 769 mmHg 71%
    06:00 +3°C° 0 mm 11 mps 769 mmHg 70%
    07:00 +4°C° 0 mm 12 mps 770 mmHg 69%
    08:00 +4°C° 0 mm 12 mps 770 mmHg 69%
    09:00 +4°C° 0 mm 13 mps 770 mmHg 67%
    10:00 +4°C° 0 mm 13 mps 771 mmHg 66%
    11:00 +4°C° 0 mm 13 mps 771 mmHg 65%
    12:00 +3°C° 0 mm 13 mps 771 mmHg 64%
    13:00 +3°C° 0 mm 13 mps 771 mmHg 63%
    14:00 +3°C° 0 mm 13 mps 771 mmHg 62%
    15:00 +1°C° 0 mm 13 mps 771 mmHg 64%
    16:00 0°C° 0 mm 13 mps 771 mmHg 67%
    17:00 -1°C° 0 mm 13 mps 771 mmHg 69%
    18:00 -1°C° 0 mm 13 mps 771 mmHg 68%
    19:00 -2°C° 0 mm 12 mps 772 mmHg 67%
    20:00 -2°C° 0 mm 12 mps 772 mmHg 66%
    21:00 -2°C° 0 mm 12 mps 772 mmHg 67%
    22:00 -2°C° 0 mm 12 mps 772 mmHg 67%
    23:00 -2°C° 0 mm 12 mps 772 mmHg 68%

    22 November, Friday

    Time Temperature Precipitation Wind Pressure Humidity
    00:00 -2°C° 0 mm 12 mps 772 mmHg 68%
    01:00 -2°C° 0 mm 12 mps 772 mmHg 69%
    02:00 -2°C° 0 mm 12 mps 772 mmHg 69%
    03:00 -3°C° 0 mm 12 mps 772 mmHg 69%
    04:00 -3°C° 0 mm 12 mps 772 mmHg 69%
    05:00 -3°C° 0 mm 12 mps 772 mmHg 69%
    06:00 -3°C° 0 mm 12 mps 772 mmHg 69%
    07:00 -3°C° 0 mm 12 mps 772 mmHg 68%
    08:00 -3°C° 0 mm 12 mps 772 mmHg 68%
    09:00 -2°C° 0 mm 12 mps 771 mmHg 67%
    10:00 -1°C° 0 mm 12 mps 771 mmHg 65%
    11:00 -1°C° 0 mm 12 mps 771 mmHg 64%
    12:00 +1°C° 0 mm 11 mps 771 mmHg 65%
    13:00 +1°C° 0 mm 11 mps 770 mmHg 66%
    14:00 +1°C° 0 mm 11 mps 770 mmHg 67%
    15:00 +1°C° 0.1 mm 11 mps 770 mmHg 68%
    16:00 +1°C° 0.1 mm 11 mps 770 mmHg 69%
    17:00 +1°C° 0.1 mm 10 mps 770 mmHg 70%
    18:00 +1°C° 0 mm 10 mps 770 mmHg 70%
    19:00 +1°C° 0 mm 10 mps 770 mmHg 69%
    20:00 +1°C° 0 mm 10 mps 769 mmHg 68%
    21:00 +1°C° 0 mm 10 mps 769 mmHg 69%
    22:00 +2°C° 0 mm 10 mps 769 mmHg 70%
    23:00 +2°C° 0 mm 10 mps 769 mmHg 71%

    23 November, Saturday

    Time Temperature Precipitation Wind Pressure Humidity
    00:00 +2°C° 0 mm 10 mps 769 mmHg 72%
    01:00 +1°C° 0 mm 10 mps 769 mmHg 74%
    02:00 +1°C° 0 mm 9 mps 769 mmHg 75%
    03:00 +1°C° 0 mm 9 mps 769 mmHg 75%
    04:00 +1°C° 0 mm 9 mps 769 mmHg 75%
    05:00 +1°C° 0 mm 9 mps 769 mmHg 75%
    06:00 +1°C° 0 mm 9 mps 769 mmHg 75%
    07:00 +1°C° 0 mm 9 mps 769 mmHg 74%
    08:00 0°C° 0 mm 9 mps 769 mmHg 73%
    09:00 +1°C° 0 mm 8 mps 769 mmHg 71%
    10:00 +1°C° 0 mm 8 mps 769 mmHg 69%
    11:00 +2°C° 0 mm 8 mps 769 mmHg 67%
    12:00 +3°C° 0 mm 7 mps 769 mmHg 67%
    13:00 +3°C° 0 mm 7 mps 768 mmHg 66%
    14:00 +3°C° 0 mm 7 mps 768 mmHg 66%
    15:00 +3°C° 0 mm 7 mps 768 mmHg 67%
    16:00 +2°C° 0 mm 7 mps 768 mmHg 68%
    17:00 +2°C° 0 mm 7 mps 768 mmHg 70%
    18:00 +2°C° 0 mm 7 mps 768 mmHg 69%
    19:00 +2°C° 0 mm 6 mps 768 mmHg 69%
    20:00 +2°C° 0 mm 6 mps 768 mmHg 69%
    21:00 +2°C° 0 mm 6 mps 768 mmHg 69%
    22:00 +2°C° 0 mm 5 mps 768 mmHg 68%
    23:00 +2°C° 0 mm 5 mps 767 mmHg 68%
    Show more